contact:dominique.lefevre@mio.osupytheas.fr, maurice.libes@osupytheas.fr, didier.mallarino@osupytheas.fr
Project:EMSO http://www.emso-fr.org/EMSO-France
Depth: 2436.0 m
Title:EMSO Ligure Ouest : Data MII capteur MICROCAT
DateTime_Computer,Latitude,Longitude,Temperature,Conductivity,Pressure,DateTime_Instrument
DateTime_Computer,Latitude,Longitude,degC,S m-1,dbar,DateTime_Instrument
2023-05-23T00:00:31Z,42.805,6.029,13.3025,4.60079,2470.717,2023-5-23T02:02:43Z
2023-05-23T00:03:34Z,42.805,6.029,13.3021,4.60079,2470.74,2023-5-23T02:05:46Z
2023-05-23T00:06:37Z,42.805,6.029,13.3020,4.60079,2470.763,2023-5-23T02:08:49Z
2023-05-23T00:09:40Z,42.805,6.029,13.3021,4.60079,2470.717,2023-5-23T02:11:52Z
2023-05-23T00:12:43Z,42.805,6.029,13.3021,4.60077,2470.707,2023-5-23T02:14:55Z
2023-05-23T00:15:46Z,42.805,6.029,13.3024,4.60090,2470.717,2023-5-23T02:17:58Z
2023-05-23T00:18:49Z,42.805,6.029,13.3021,4.60077,2470.717,2023-5-23T02:21:01Z
2023-05-23T00:21:52Z,42.805,6.029,13.3023,4.60077,2470.717,2023-5-23T02:24:04Z
2023-05-23T00:24:55Z,42.805,6.029,13.3022,4.60077,2470.717,2023-5-23T02:27:07Z
2023-05-23T00:27:58Z,42.805,6.029,13.3020,4.60077,2470.74,2023-5-23T02:30:10Z
2023-05-23T00:31:01Z,42.805,6.029,13.3021,4.60079,2470.707,2023-5-23T02:33:13Z
2023-05-23T00:34:04Z,42.805,6.029,13.3021,4.60078,2470.717,2023-5-23T02:36:17Z
2023-05-23T00:37:07Z,42.805,6.029,13.3021,4.60078,2470.754,2023-5-23T02:39:20Z
2023-05-23T00:40:11Z,42.805,6.029,13.3021,4.60081,2470.717,2023-5-23T02:42:23Z
2023-05-23T00:43:14Z,42.805,6.029,13.3025,4.60077,2470.717,2023-5-23T02:45:26Z
2023-05-23T00:46:17Z,42.805,6.029,13.3021,4.60078,2470.707,2023-5-23T02:48:29Z
2023-05-23T00:49:20Z,42.805,6.029,13.3019,4.60077,2470.717,2023-5-23T02:51:32Z
2023-05-23T00:52:23Z,42.805,6.029,13.3021,4.60079,2470.707,2023-5-23T02:54:35Z
2023-05-23T00:55:26Z,42.805,6.029,13.3021,4.60079,2470.707,2023-5-23T02:57:38Z
2023-05-23T00:58:29Z,42.805,6.029,13.3019,4.60086,2470.693,2023-5-23T03:00:41Z
2023-05-23T01:01:32Z,42.805,6.029,13.3023,4.60077,2470.73,2023-5-23T03:03:44Z
2023-05-23T01:04:35Z,42.805,6.029,13.3018,4.60076,2470.684,2023-5-23T03:06:47Z
2023-05-23T01:07:38Z,42.805,6.029,13.3021,4.60076,2470.693,2023-5-23T03:09:50Z
2023-05-23T01:10:41Z,42.805,6.029,13.3024,4.60077,2470.693,2023-5-23T03:12:53Z
2023-05-23T01:13:44Z,42.805,6.029,13.3021,4.60078,2470.754,2023-5-23T03:15:57Z
2023-05-23T01:16:48Z,42.805,6.029,13.3019,4.60079,2470.693,2023-5-23T03:19:00Z
2023-05-23T01:19:51Z,42.805,6.029,13.3019,4.60079,2470.67,2023-5-23T03:22:03Z
2023-05-23T01:22:54Z,42.805,6.029,13.3021,4.60077,2470.73,2023-5-23T03:25:06Z
2023-05-23T01:25:57Z,42.805,6.029,13.3019,4.60077,2470.707,2023-5-23T03:28:09Z
2023-05-23T01:29:00Z,42.805,6.029,13.3019,4.60079,2470.67,2023-5-23T03:31:12Z
2023-05-23T01:32:03Z,42.805,6.029,13.3019,4.60077,2470.693,2023-5-23T03:34:15Z
2023-05-23T01:35:06Z,42.805,6.029,13.3019,4.60077,2470.693,2023-5-23T03:37:18Z
2023-05-23T01:38:09Z,42.805,6.029,13.3019,4.60076,2470.693,2023-5-23T03:40:21Z
2023-05-23T01:41:12Z,42.805,6.029,13.3021,4.60087,2470.717,2023-5-23T03:43:24Z
2023-05-23T01:44:15Z,42.805,6.029,13.3024,4.60078,2470.679,2023-5-23T03:46:27Z
2023-05-23T01:47:18Z,42.805,6.029,13.3017,4.60077,2470.67,2023-5-23T03:49:30Z
2023-05-23T01:50:21Z,42.805,6.029,13.3022,4.60078,2470.67,2023-5-23T03:52:33Z
2023-05-23T01:53:24Z,42.805,6.029,13.3019,4.60078,2470.67,2023-5-23T03:55:37Z
2023-05-23T01:56:28Z,42.805,6.029,13.3023,4.60089,2470.693,2023-5-23T03:58:40Z
2023-05-23T01:59:31Z,42.805,6.029,13.3020,4.60077,2470.684,2023-5-23T04:01:43Z
2023-05-23T02:02:34Z,42.805,6.029,13.3023,4.60076,2470.717,2023-5-23T04:04:46Z
2023-05-23T02:05:37Z,42.805,6.029,13.3019,4.60077,2470.707,2023-5-23T04:07:49Z
2023-05-23T02:08:40Z,42.805,6.029,13.3021,4.60077,2470.67,2023-5-23T04:10:52Z
2023-05-23T02:11:43Z,42.805,6.029,13.3023,4.60077,2470.67,2023-5-23T04:13:55Z
2023-05-23T02:14:46Z,42.805,6.029,13.3023,4.60078,2470.67,2023-5-23T04:16:58Z
2023-05-23T02:17:49Z,42.805,6.029,13.3017,4.60075,2470.717,2023-5-23T04:20:01Z
2023-05-23T02:20:52Z,42.805,6.029,13.3019,4.60077,2470.693,2023-5-23T04:23:04Z
2023-05-23T02:23:55Z,42.805,6.029,13.3021,4.60077,2470.693,2023-5-23T04:26:07Z
2023-05-23T02:26:58Z,42.805,6.029,13.3020,4.60076,2470.684,2023-5-23T04:29:10Z
2023-05-23T02:30:01Z,42.805,6.029,13.3018,4.60076,2470.693,2023-5-23T04:32:13Z
2023-05-23T02:33:04Z,42.805,6.029,13.3020,4.60075,2470.67,2023-5-23T04:35:17Z
2023-05-23T02:36:07Z,42.805,6.029,13.3016,4.60075,2470.646,2023-5-23T04:38:20Z
2023-05-23T02:39:11Z,42.805,6.029,13.3022,4.60075,2470.646,2023-5-23T04:41:23Z
2023-05-23T02:42:14Z,42.805,6.029,13.3021,4.60076,2470.646,2023-5-23T04:44:26Z
2023-05-23T02:45:17Z,42.805,6.029,13.3021,4.60078,2470.67,2023-5-23T04:47:29Z
2023-05-23T02:48:20Z,42.805,6.029,13.3019,4.60081,2470.646,2023-5-23T04:50:32Z
2023-05-23T02:51:23Z,42.805,6.029,13.3024,4.60077,2470.646,2023-5-23T04:53:35Z
2023-05-23T02:54:26Z,42.805,6.029,13.3023,4.60079,2470.646,2023-5-23T04:56:38Z
2023-05-23T02:57:29Z,42.805,6.029,13.3019,4.60077,2470.661,2023-5-23T04:59:41Z
2023-05-23T03:00:32Z,42.805,6.029,13.3019,4.60076,2470.646,2023-5-23T05:02:44Z
2023-05-23T03:03:35Z,42.805,6.029,13.3021,4.60079,2470.646,2023-5-23T05:05:47Z
2023-05-23T03:06:38Z,42.805,6.029,13.3019,4.60078,2470.661,2023-5-23T05:08:50Z
2023-05-23T03:09:41Z,42.805,6.029,13.3019,4.60076,2470.646,2023-5-23T05:11:53Z
2023-05-23T03:12:44Z,42.805,6.029,13.3021,4.60084,2470.67,2023-5-23T05:14:57Z
2023-05-23T03:15:48Z,42.805,6.029,13.3020,4.60077,2470.646,2023-5-23T05:18:00Z
2023-05-23T03:18:51Z,42.805,6.029,13.3023,4.60079,2470.693,2023-5-23T05:21:03Z
2023-05-23T03:21:54Z,42.805,6.029,13.3019,4.60076,2470.661,2023-5-23T05:24:06Z
2023-05-23T03:24:57Z,42.805,6.029,13.3021,4.60077,2470.661,2023-5-23T05:27:09Z
2023-05-23T03:28:00Z,42.805,6.029,13.3021,4.60078,2470.684,2023-5-23T05:30:12Z
2023-05-23T03:31:03Z,42.805,6.029,13.3015,4.60077,2470.646,2023-5-23T05:33:15Z
2023-05-23T03:34:06Z,42.805,6.029,13.3019,4.60077,2470.646,2023-5-23T05:36:18Z
2023-05-23T03:37:09Z,42.805,6.029,13.3019,4.60077,2470.646,2023-5-23T05:39:21Z
2023-05-23T03:40:12Z,42.805,6.029,13.3021,4.60077,2470.661,2023-5-23T05:42:24Z
2023-05-23T03:43:15Z,42.805,6.029,13.3021,4.60078,2470.624,2023-5-23T05:45:27Z
2023-05-23T03:46:18Z,42.805,6.029,13.3019,4.60078,2470.67,2023-5-23T05:48:30Z
2023-05-23T03:49:21Z,42.805,6.029,13.3019,4.60085,2470.624,2023-5-23T05:51:34Z
2023-05-23T03:52:24Z,42.805,6.029,13.3020,4.60077,2470.646,2023-5-23T05:54:37Z
2023-05-23T03:55:28Z,42.805,6.029,13.3017,4.60078,2470.624,2023-5-23T05:57:40Z
2023-05-23T03:58:31Z,42.805,6.029,13.3023,4.60077,2470.67,2023-5-23T06:00:43Z
2023-05-23T04:01:34Z,42.805,6.029,13.3020,4.60076,2470.646,2023-5-23T06:03:46Z
2023-05-23T04:04:37Z,42.805,6.029,13.3018,4.60078,2470.646,2023-5-23T06:06:49Z
2023-05-23T04:07:40Z,42.805,6.029,13.3024,4.60079,2470.637,2023-5-23T06:09:52Z
2023-05-23T04:10:43Z,42.805,6.029,13.3021,4.60077,2470.661,2023-5-23T06:12:55Z
2023-05-23T04:13:46Z,42.805,6.029,13.3021,4.60081,2470.646,2023-5-23T06:15:58Z
2023-05-23T04:16:49Z,42.805,6.029,13.3019,4.60077,2470.661,2023-5-23T06:19:01Z
2023-05-23T04:19:52Z,42.805,6.029,13.3019,4.60078,2470.646,2023-5-23T06:22:04Z
2023-05-23T04:22:55Z,42.805,6.029,13.3019,4.60079,2470.624,2023-5-23T06:25:07Z
2023-05-23T04:25:58Z,42.805,6.029,13.3019,4.60077,2470.624,2023-5-23T06:28:10Z
2023-05-23T04:29:01Z,42.805,6.029,13.3021,4.60077,2470.646,2023-5-23T06:31:14Z
2023-05-23T04:32:04Z,42.805,6.029,13.3021,4.60076,2470.646,2023-5-23T06:34:17Z
2023-05-23T04:35:08Z,42.805,6.029,13.3021,4.60077,2470.624,2023-5-23T06:37:20Z
2023-05-23T04:38:11Z,42.805,6.029,13.3017,4.60087,2470.6,2023-5-23T06:40:23Z
2023-05-23T04:41:14Z,42.805,6.029,13.3022,4.60080,2470.624,2023-5-23T06:43:26Z
2023-05-23T04:44:17Z,42.805,6.029,13.3022,4.60089,2470.6,2023-5-23T06:46:29Z
2023-05-23T04:47:20Z,42.805,6.029,13.3019,4.60079,2470.646,2023-5-23T06:49:32Z
2023-05-23T04:50:23Z,42.805,6.029,13.3026,4.60079,2470.637,2023-5-23T06:52:35Z
2023-05-23T04:53:26Z,42.805,6.029,13.3025,4.60079,2470.661,2023-5-23T06:55:38Z
2023-05-23T04:56:29Z,42.805,6.029,13.3020,4.60079,2470.624,2023-5-23T06:58:41Z
2023-05-23T04:59:32Z,42.805,6.029,13.3023,4.60079,2470.661,2023-5-23T07:01:44Z
2023-05-23T05:02:35Z,42.805,6.029,13.3021,4.60077,2470.637,2023-5-23T07:04:47Z
2023-05-23T05:05:38Z,42.805,6.029,13.3020,4.60077,2470.646,2023-5-23T07:07:50Z
2023-05-23T05:08:41Z,42.805,6.029,13.3019,4.60079,2470.646,2023-5-23T07:10:54Z
2023-05-23T05:11:44Z,42.805,6.029,13.3022,4.60080,2470.646,2023-5-23T07:13:57Z
2023-05-23T05:14:48Z,42.805,6.029,13.3021,4.60077,2470.646,2023-5-23T07:17:00Z
2023-05-23T05:17:51Z,42.805,6.029,13.3024,4.60079,2470.646,2023-5-23T07:20:03Z
2023-05-23T05:20:54Z,42.805,6.029,13.3019,4.60093,2470.637,2023-5-23T07:23:06Z
2023-05-23T05:23:57Z,42.805,6.029,13.3022,4.60093,2470.684,2023-5-23T07:26:09Z
2023-05-23T05:27:00Z,42.805,6.029,13.3020,4.60077,2470.684,2023-5-23T07:29:12Z
2023-05-23T05:30:03Z,42.805,6.029,13.3023,4.60077,2470.624,2023-5-23T07:32:15Z
2023-05-23T05:33:06Z,42.805,6.029,13.3019,4.60078,2470.624,2023-5-23T07:35:18Z
2023-05-23T05:36:09Z,42.805,6.029,13.3023,4.60080,2470.624,2023-5-23T07:38:21Z
2023-05-23T05:39:12Z,42.805,6.029,13.3020,4.60078,2470.674,2023-5-23T07:41:24Z
2023-05-23T05:42:15Z,42.805,6.029,13.3023,4.60077,2470.67,2023-5-23T07:44:27Z
2023-05-23T05:45:18Z,42.805,6.029,13.3021,4.60081,2470.646,2023-5-23T07:47:31Z
2023-05-23T05:48:21Z,42.805,6.029,13.3022,4.60080,2470.661,2023-5-23T07:50:34Z
2023-05-23T05:51:24Z,42.805,6.029,13.3019,4.60082,2470.646,2023-5-23T07:53:37Z
2023-05-23T05:54:28Z,42.805,6.029,13.3020,4.60078,2470.646,2023-5-23T07:56:40Z
2023-05-23T05:57:31Z,42.805,6.029,13.3021,4.60077,2470.674,2023-5-23T07:59:43Z
2023-05-23T06:00:34Z,42.805,6.029,13.3019,4.60077,2470.646,2023-5-23T08:02:46Z
2023-05-23T06:03:37Z,42.805,6.029,13.3019,4.60078,2470.646,2023-5-23T08:05:49Z
2023-05-23T06:06:40Z,42.805,6.029,13.3021,4.60079,2470.633,2023-5-23T08:08:52Z
2023-05-23T06:09:43Z,42.805,6.029,13.3023,4.60079,2470.637,2023-5-23T08:11:55Z
2023-05-23T06:12:46Z,42.805,6.029,13.3021,4.60079,2470.684,2023-5-23T08:14:58Z
2023-05-23T06:15:49Z,42.805,6.029,13.3021,4.60079,2470.646,2023-5-23T08:18:01Z
2023-05-23T06:18:52Z,42.805,6.029,13.3026,4.60079,2470.684,2023-5-23T08:21:04Z
2023-05-23T06:21:55Z,42.805,6.029,13.3026,4.60081,2470.661,2023-5-23T08:24:07Z
2023-05-23T06:24:58Z,42.805,6.029,13.3023,4.60087,2470.67,2023-5-23T08:27:11Z
2023-05-23T06:28:01Z,42.805,6.029,13.3024,4.60081,2470.661,2023-5-23T08:30:14Z
2023-05-23T06:31:03Z,42.805,6.029,13.3019,4.60079,2470.661,2023-5-23T08:33:15Z
2023-05-23T06:34:06Z,42.805,6.029,13.3022,4.60079,2470.67,2023-5-23T08:36:18Z
2023-05-23T06:37:09Z,42.805,6.029,13.3018,4.60080,2470.693,2023-5-23T08:39:21Z
2023-05-23T06:40:12Z,42.805,6.029,13.3018,4.60094,2470.693,2023-5-23T08:42:24Z
2023-05-23T06:43:15Z,42.805,6.029,13.3023,4.60078,2470.693,2023-5-23T08:45:27Z
2023-05-23T06:46:18Z,42.805,6.029,13.3023,4.60079,2470.684,2023-5-23T08:48:31Z
2023-05-23T06:49:21Z,42.805,6.029,13.3024,4.60078,2470.646,2023-5-23T08:51:34Z
2023-05-23T06:52:25Z,42.805,6.029,13.3023,4.60079,2470.67,2023-5-23T08:54:37Z
2023-05-23T06:55:28Z,42.805,6.029,13.3021,4.60079,2470.684,2023-5-23T08:57:40Z
2023-05-23T06:58:31Z,42.805,6.029,13.3024,4.60097,2470.67,2023-5-23T09:00:43Z
2023-05-23T07:01:34Z,42.805,6.029,13.3022,4.60079,2470.684,2023-5-23T09:03:46Z
2023-05-23T07:04:37Z,42.805,6.029,13.3024,4.60079,2470.707,2023-5-23T09:06:49Z
2023-05-23T07:07:40Z,42.805,6.029,13.3022,4.60079,2470.707,2023-5-23T09:09:52Z
2023-05-23T07:10:43Z,42.805,6.029,13.3024,4.60081,2470.707,2023-5-23T09:12:55Z
2023-05-23T07:13:46Z,42.805,6.029,13.3017,4.60087,2470.693,2023-5-23T09:15:58Z
2023-05-23T07:16:49Z,42.805,6.029,13.3024,4.60079,2470.67,2023-5-23T09:19:01Z
2023-05-23T07:19:52Z,42.805,6.029,13.3026,4.60079,2470.73,2023-5-23T09:22:04Z
2023-05-23T07:22:55Z,42.805,6.029,13.3023,4.60081,2470.707,2023-5-23T09:25:07Z
2023-05-23T07:25:58Z,42.805,6.029,13.3023,4.60079,2470.693,2023-5-23T09:28:10Z
2023-05-23T07:29:01Z,42.805,6.029,13.3024,4.60079,2470.693,2023-5-23T09:31:14Z
2023-05-23T07:32:05Z,42.805,6.029,13.3023,4.60083,2470.67,2023-5-23T09:34:17Z
2023-05-23T07:35:08Z,42.805,6.029,13.3024,4.60080,2470.693,2023-5-23T09:37:20Z
2023-05-23T07:38:11Z,42.805,6.029,13.3024,4.60078,2470.693,2023-5-23T09:40:23Z
2023-05-23T07:41:14Z,42.805,6.029,13.3024,4.60082,2470.693,2023-5-23T09:43:26Z
2023-05-23T07:44:17Z,42.805,6.029,13.3021,4.60081,2470.67,2023-5-23T09:46:29Z
2023-05-23T07:47:20Z,42.805,6.029,13.3021,4.60081,2470.693,2023-5-23T09:49:32Z
2023-05-23T07:50:23Z,42.805,6.029,13.3022,4.60079,2470.717,2023-5-23T09:52:35Z
2023-05-23T07:53:26Z,42.805,6.029,13.3021,4.60079,2470.693,2023-5-23T09:55:38Z
2023-05-23T07:56:29Z,42.805,6.029,13.3025,4.60081,2470.717,2023-5-23T09:58:41Z
2023-05-23T07:59:32Z,42.805,6.029,13.3024,4.60079,2470.693,2023-5-23T10:01:44Z
2023-05-23T08:02:35Z,42.805,6.029,13.3024,4.60080,2470.693,2023-5-23T10:04:47Z
2023-05-23T08:05:38Z,42.805,6.029,13.3024,4.60081,2470.73,2023-5-23T10:07:51Z
2023-05-23T08:08:42Z,42.805,6.029,13.3024,4.60079,2470.73,2023-5-23T10:10:54Z
2023-05-23T08:11:45Z,42.805,6.029,13.3026,4.60085,2470.74,2023-5-23T10:13:57Z
2023-05-23T08:14:48Z,42.805,6.029,13.3020,4.60087,2470.693,2023-5-23T10:17:00Z
2023-05-23T08:17:51Z,42.805,6.029,13.3021,4.60079,2470.693,2023-5-23T10:20:03Z
2023-05-23T08:20:54Z,42.805,6.029,13.3020,4.60078,2470.717,2023-5-23T10:23:06Z
2023-05-23T08:23:57Z,42.805,6.029,13.3023,4.60079,2470.754,2023-5-23T10:26:09Z
2023-05-23T08:27:00Z,42.805,6.029,13.3023,4.60078,2470.679,2023-5-23T10:29:12Z
2023-05-23T08:30:03Z,42.805,6.029,13.3021,4.60079,2470.717,2023-5-23T10:32:15Z
2023-05-23T08:33:06Z,42.805,6.029,13.3021,4.60079,2470.717,2023-5-23T10:35:18Z
2023-05-23T08:36:09Z,42.805,6.029,13.3021,4.60079,2470.74,2023-5-23T10:38:21Z
2023-05-23T08:39:12Z,42.805,6.029,13.3020,4.60079,2470.717,2023-5-23T10:41:24Z
2023-05-23T08:42:15Z,42.805,6.029,13.3026,4.60079,2470.717,2023-5-23T10:44:28Z
2023-05-23T08:45:18Z,42.805,6.029,13.3025,4.60079,2470.717,2023-5-23T10:47:31Z
2023-05-23T08:48:22Z,42.805,6.029,13.3026,4.60080,2470.717,2023-5-23T10:50:34Z
2023-05-23T08:51:25Z,42.805,6.029,13.3024,4.60080,2470.73,2023-5-23T10:53:37Z
2023-05-23T08:54:28Z,42.805,6.029,13.3021,4.60079,2470.717,2023-5-23T10:56:40Z
2023-05-23T08:57:31Z,42.805,6.029,13.3023,4.60079,2470.763,2023-5-23T10:59:43Z
2023-05-23T09:00:34Z,42.805,6.029,13.3023,4.60079,2470.717,2023-5-23T11:02:46Z
2023-05-23T09:03:37Z,42.805,6.029,13.3019,4.60079,2470.693,2023-5-23T11:05:49Z
2023-05-23T09:06:40Z,42.805,6.029,13.3021,4.60079,2470.717,2023-5-23T11:08:52Z
2023-05-23T09:09:43Z,42.805,6.029,13.3023,4.60084,2470.717,2023-5-23T11:11:55Z
2023-05-23T09:12:46Z,42.805,6.029,13.3025,4.60080,2470.693,2023-5-23T11:14:58Z
2023-05-23T09:15:49Z,42.805,6.029,13.3020,4.60082,2470.73,2023-5-23T11:18:01Z
2023-05-23T09:18:52Z,42.805,6.029,13.3019,4.60084,2470.717,2023-5-23T11:21:05Z
2023-05-23T09:21:55Z,42.805,6.029,13.3021,4.60079,2470.717,2023-5-23T11:24:08Z
2023-05-23T09:24:59Z,42.805,6.029,13.3021,4.60081,2470.703,2023-5-23T11:27:11Z
2023-05-23T09:28:02Z,42.805,6.029,13.3023,4.60084,2470.717,2023-5-23T11:30:14Z
2023-05-23T09:31:05Z,42.805,6.029,13.3020,4.60081,2470.717,2023-5-23T11:33:17Z
2023-05-23T09:34:08Z,42.805,6.029,13.3022,4.60083,2470.73,2023-5-23T11:36:20Z
2023-05-23T09:37:11Z,42.805,6.029,13.3024,4.60080,2470.693,2023-5-23T11:39:23Z
2023-05-23T09:40:14Z,42.805,6.029,13.3024,4.60081,2470.717,2023-5-23T11:42:26Z
2023-05-23T09:43:17Z,42.805,6.029,13.3024,4.60081,2470.693,2023-5-23T11:45:29Z
2023-05-23T09:46:20Z,42.805,6.029,13.3023,4.60081,2470.74,2023-5-23T11:48:32Z
2023-05-23T09:49:23Z,42.805,6.029,13.3023,4.60081,2470.717,2023-5-23T11:51:35Z
2023-05-23T09:52:26Z,42.805,6.029,13.3024,4.60081,2470.693,2023-5-23T11:54:38Z
2023-05-23T09:55:29Z,42.805,6.029,13.3024,4.60084,2470.717,2023-5-23T11:57:42Z
2023-05-23T09:58:32Z,42.805,6.029,13.3024,4.60080,2470.74,2023-5-23T12:00:45Z
2023-05-23T10:01:36Z,42.805,6.029,13.3022,4.60081,2470.693,2023-5-23T12:03:48Z
2023-05-23T10:04:39Z,42.805,6.029,13.3022,4.60081,2470.717,2023-5-23T12:06:51Z
2023-05-23T10:07:42Z,42.805,6.029,13.3021,4.60079,2470.73,2023-5-23T12:09:54Z
2023-05-23T10:10:45Z,42.805,6.029,13.3027,4.60081,2470.703,2023-5-23T12:12:57Z
2023-05-23T10:13:48Z,42.805,6.029,13.3020,4.60079,2470.717,2023-5-23T12:16:00Z
2023-05-23T10:16:51Z,42.805,6.029,13.3024,4.60081,2470.693,2023-5-23T12:19:03Z
2023-05-23T10:19:54Z,42.805,6.029,13.3025,4.60081,2470.74,2023-5-23T12:22:06Z
2023-05-23T10:22:57Z,42.805,6.029,13.3021,4.60081,2470.717,2023-5-23T12:25:09Z
2023-05-23T10:26:00Z,42.805,6.029,13.3021,4.60080,2470.717,2023-5-23T12:28:12Z
2023-05-23T10:29:03Z,42.805,6.029,13.3021,4.60080,2470.73,2023-5-23T12:31:15Z
2023-05-23T10:32:06Z,42.805,6.029,13.3021,4.60081,2470.73,2023-5-23T12:34:19Z
2023-05-23T10:35:09Z,42.805,6.029,13.3018,4.60081,2470.707,2023-5-23T12:37:22Z
2023-05-23T10:38:13Z,42.805,6.029,13.3024,4.60079,2470.693,2023-5-23T12:40:25Z
2023-05-23T10:41:16Z,42.805,6.029,13.3021,4.60084,2470.707,2023-5-23T12:43:28Z
2023-05-23T10:44:19Z,42.805,6.029,13.3020,4.60079,2470.707,2023-5-23T12:46:31Z
2023-05-23T10:47:22Z,42.805,6.029,13.3020,4.60079,2470.717,2023-5-23T12:49:34Z
2023-05-23T10:50:25Z,42.805,6.029,13.3021,4.60080,2470.67,2023-5-23T12:52:37Z
2023-05-23T10:53:28Z,42.805,6.029,13.3021,4.60079,2470.67,2023-5-23T12:55:40Z
2023-05-23T10:56:31Z,42.805,6.029,13.3024,4.60080,2470.684,2023-5-23T12:58:43Z
2023-05-23T10:59:34Z,42.805,6.029,13.3023,4.60082,2470.707,2023-5-23T13:01:46Z
2023-05-23T11:02:37Z,42.805,6.029,13.3024,4.60082,2470.67,2023-5-23T13:04:49Z
2023-05-23T11:05:40Z,42.805,6.029,13.3023,4.60083,2470.684,2023-5-23T13:07:52Z
2023-05-23T11:08:43Z,42.805,6.029,13.3019,4.60080,2470.67,2023-5-23T13:10:56Z
2023-05-23T11:11:46Z,42.805,6.029,13.3024,4.60081,2470.707,2023-5-23T13:13:59Z
2023-05-23T11:14:50Z,42.805,6.029,13.3025,4.60081,2470.67,2023-5-23T13:17:02Z
2023-05-23T11:17:53Z,42.805,6.029,13.3026,4.60080,2470.67,2023-5-23T13:20:05Z
2023-05-23T11:20:56Z,42.805,6.029,13.3024,4.60081,2470.67,2023-5-23T13:23:08Z
2023-05-23T11:23:59Z,42.805,6.029,13.3024,4.60079,2470.684,2023-5-23T13:26:11Z
2023-05-23T11:27:02Z,42.805,6.029,13.3024,4.60081,2470.67,2023-5-23T13:29:14Z
2023-05-23T11:30:05Z,42.805,6.029,13.3023,4.60079,2470.661,2023-5-23T13:32:17Z
2023-05-23T11:33:08Z,42.805,6.029,13.3019,4.60081,2470.646,2023-5-23T13:35:20Z
2023-05-23T11:36:11Z,42.805,6.029,13.3024,4.60081,2470.693,2023-5-23T13:38:23Z
2023-05-23T11:39:14Z,42.805,6.029,13.3024,4.60080,2470.67,2023-5-23T13:41:26Z
2023-05-23T11:42:17Z,42.805,6.029,13.3022,4.60081,2470.661,2023-5-23T13:44:29Z
2023-05-23T11:45:20Z,42.805,6.029,13.3021,4.60081,2470.684,2023-5-23T13:47:33Z
2023-05-23T11:48:23Z,42.805,6.029,13.3022,4.60080,2470.707,2023-5-23T13:50:36Z
2023-05-23T11:51:27Z,42.805,6.029,13.3021,4.60082,2470.646,2023-5-23T13:53:39Z
2023-05-23T11:54:30Z,42.805,6.029,13.3023,4.60080,2470.67,2023-5-23T13:56:42Z
2023-05-23T11:57:33Z,42.805,6.029,13.3024,4.60082,2470.661,2023-5-23T13:59:45Z
2023-05-23T12:00:36Z,42.805,6.029,13.3025,4.60081,2470.624,2023-5-23T14:02:48Z
2023-05-23T12:03:39Z,42.805,6.029,13.3024,4.60081,2470.661,2023-5-23T14:05:51Z
2023-05-23T12:06:42Z,42.805,6.029,13.3025,4.60081,2470.646,2023-5-23T14:08:54Z
2023-05-23T12:09:45Z,42.805,6.029,13.3023,4.60084,2470.646,2023-5-23T14:11:57Z
2023-05-23T12:12:48Z,42.805,6.029,13.3021,4.60085,2470.646,2023-5-23T14:15:00Z
2023-05-23T12:15:51Z,42.805,6.029,13.3024,4.60082,2470.646,2023-5-23T14:18:03Z
2023-05-23T12:18:54Z,42.805,6.029,13.3022,4.60084,2470.624,2023-5-23T14:21:06Z
2023-05-23T12:21:57Z,42.805,6.029,13.3025,4.60081,2470.661,2023-5-23T14:24:10Z
2023-05-23T12:25:00Z,42.805,6.029,13.3022,4.60081,2470.637,2023-5-23T14:27:13Z
2023-05-23T12:28:04Z,42.805,6.029,13.3024,4.60081,2470.637,2023-5-23T14:30:16Z
2023-05-23T12:31:07Z,42.805,6.029,13.3028,4.60082,2470.661,2023-5-23T14:33:19Z
2023-05-23T12:34:10Z,42.805,6.029,13.3022,4.60083,2470.614,2023-5-23T14:36:22Z
2023-05-23T12:37:13Z,42.805,6.029,13.3024,4.60085,2470.661,2023-5-23T14:39:25Z
2023-05-23T12:40:16Z,42.805,6.029,13.3029,4.60084,2470.624,2023-5-23T14:42:29Z
2023-05-23T12:43:19Z,42.805,6.029,13.3036,4.60092,2470.637,2023-5-23T14:45:32Z
2023-05-23T12:46:23Z,42.805,6.029,13.3037,4.60092,2470.646,2023-5-23T14:48:35Z
2023-05-23T12:49:26Z,42.805,6.029,13.3040,4.60110,2470.624,2023-5-23T14:51:38Z
2023-05-23T12:52:29Z,42.805,6.029,13.3047,4.60099,2470.661,2023-5-23T14:54:41Z
2023-05-23T12:55:32Z,42.805,6.029,13.3028,4.60089,2470.646,2023-5-23T14:57:44Z
2023-05-23T12:58:35Z,42.805,6.029,13.3067,4.60102,2470.6,2023-5-23T15:00:47Z
2023-05-23T13:01:38Z,42.805,6.029,13.3034,4.60106,2470.577,2023-5-23T15:03:50Z
2023-05-23T13:04:41Z,42.805,6.029,13.3026,4.60085,2470.6,2023-5-23T15:06:53Z
2023-05-23T13:07:44Z,42.805,6.029,13.3036,4.60098,2470.624,2023-5-23T15:09:56Z
2023-05-23T13:10:47Z,42.805,6.029,13.3031,4.60085,2470.6,2023-5-23T15:12:59Z
2023-05-23T13:13:50Z,42.805,6.029,13.3041,4.60087,2470.637,2023-5-23T15:16:02Z
2023-05-23T13:16:53Z,42.805,6.029,13.3020,4.60087,2470.6,2023-5-23T15:19:06Z
2023-05-23T13:19:56Z,42.805,6.029,13.3026,4.60085,2470.646,2023-5-23T15:22:09Z
2023-05-23T13:23:00Z,42.805,6.029,13.3032,4.60085,2470.614,2023-5-23T15:25:12Z
2023-05-23T13:26:03Z,42.805,6.029,13.3035,4.60092,2470.624,2023-5-23T15:28:15Z
2023-05-23T13:29:06Z,42.805,6.029,13.3039,4.60086,2470.614,2023-5-23T15:31:18Z
2023-05-23T13:32:09Z,42.805,6.029,13.3024,4.60087,2470.614,2023-5-23T15:34:21Z
2023-05-23T13:35:12Z,42.805,6.029,13.3034,4.60084,2470.614,2023-5-23T15:37:24Z
2023-05-23T13:38:15Z,42.805,6.029,13.3027,4.60087,2470.614,2023-5-23T15:40:27Z
2023-05-23T13:41:18Z,42.805,6.029,13.3054,4.60112,2470.6,2023-5-23T15:43:30Z
2023-05-23T13:44:21Z,42.805,6.029,13.3031,4.60089,2470.6,2023-5-23T15:46:33Z
2023-05-23T13:47:24Z,42.805,6.029,13.3032,4.60104,2470.591,2023-5-23T15:49:36Z
2023-05-23T13:50:27Z,42.805,6.029,13.3059,4.60104,2470.6,2023-5-23T15:52:39Z
2023-05-23T13:53:30Z,42.805,6.029,13.3046,4.60109,2470.586,2023-5-23T15:55:43Z
2023-05-23T13:56:33Z,42.805,6.029,13.3048,4.60104,2470.591,2023-5-23T15:58:46Z
2023-05-23T13:59:37Z,42.805,6.029,13.3031,4.60086,2470.577,2023-5-23T16:01:49Z
2023-05-23T14:02:40Z,42.805,6.029,13.3030,4.60091,2470.6,2023-5-23T16:04:52Z
2023-05-23T14:05:43Z,42.805,6.029,13.3060,4.60090,2470.577,2023-5-23T16:07:55Z
2023-05-23T14:08:46Z,42.805,6.029,13.3035,4.60110,2470.577,2023-5-23T16:10:58Z
2023-05-23T14:11:49Z,42.805,6.029,13.3054,4.60149,2470.614,2023-5-23T16:14:01Z
2023-05-23T14:14:52Z,42.805,6.029,13.3046,4.60132,2470.577,2023-5-23T16:17:04Z
2023-05-23T14:17:55Z,42.805,6.029,13.3073,4.60132,2470.6,2023-5-23T16:20:07Z
2023-05-23T14:20:58Z,42.805,6.029,13.3063,4.60140,2470.6,2023-5-23T16:23:10Z
2023-05-23T14:24:01Z,42.805,6.029,13.3065,4.60151,2470.591,2023-5-23T16:26:13Z
2023-05-23T14:27:04Z,42.805,6.029,13.3056,4.60132,2470.6,2023-5-23T16:29:16Z
2023-05-23T14:30:11Z,42.805,6.029,13.3057,4.60106,2470.591,2023-5-23T16:32:23Z
2023-05-23T14:33:14Z,42.805,6.029,13.3056,4.60120,2470.591,2023-5-23T16:35:26Z
2023-05-23T14:36:17Z,42.805,6.029,13.3062,4.60126,2470.591,2023-5-23T16:38:29Z
2023-05-23T14:39:20Z,42.805,6.029,13.3069,4.60124,2470.577,2023-5-23T16:41:32Z
2023-05-23T14:42:23Z,42.805,6.029,13.3061,4.60112,2470.6,2023-5-23T16:44:35Z
2023-05-23T14:45:26Z,42.805,6.029,13.3060,4.60122,2470.614,2023-5-23T16:47:38Z
2023-05-23T14:48:29Z,42.805,6.029,13.3065,4.60106,2470.577,2023-5-23T16:50:42Z
2023-05-23T14:51:33Z,42.805,6.029,13.3068,4.60121,2470.591,2023-5-23T16:53:45Z
2023-05-23T14:54:36Z,42.805,6.029,13.3063,4.60172,2470.614,2023-5-23T16:56:48Z
2023-05-23T14:57:39Z,42.805,6.029,13.3058,4.60147,2470.614,2023-5-23T16:59:51Z
2023-05-23T15:00:42Z,42.805,6.029,13.3067,4.60135,2470.577,2023-5-23T17:02:54Z
2023-05-23T15:03:45Z,42.805,6.029,13.3057,4.60153,2470.6,2023-5-23T17:05:57Z
2023-05-23T15:06:48Z,42.805,6.029,13.3063,4.60162,2470.6,2023-5-23T17:09:00Z
2023-05-23T15:09:51Z,42.805,6.029,13.3060,4.60134,2470.6,2023-5-23T17:12:03Z